AFL28Y LTFM-URSS

Flight info

Callsign AFL28Y
Flight time N/A
Altitude 37000
Route EKAWE1D/35L EKAWE UT641 BIMVO UM859 RUVOM UN743 ODIRA/K0848F370 G487 DIRUN DIRUN1K
Aircraft A320/M-SDE3FGHIRWY/LB1

Departure

Time N/A
Airport İstanbul Airport (LTFM)

Arrival

Time 2026-05-04 16:47
Airport Sochi International Airport (URSS)
Time Latitude Longitude Altitude Speed Heading
2026-05-04 15:26 41.69352 29.79033 19114 ft 341 kts 68°
2026-05-04 15:26 41.70887 29.85061 20354 ft 343 kts 68°
2026-05-04 15:27 41.71649 29.88046 20958 ft 345 kts 67°
2026-05-04 15:27 41.73204 29.94141 22194 ft 347 kts 67°
2026-05-04 15:28 41.74769 30.00296 23436 ft 351 kts 66°
2026-05-04 15:28 41.75558 30.03400 23936 ft 353 kts 66°
2026-05-04 15:28 41.77142 30.09655 24881 ft 357 kts 67°
2026-05-04 15:29 41.77940 30.12826 25352 ft 359 kts 67°
2026-05-04 15:30 41.81148 30.25615 27089 ft 365 kts 67°
2026-05-04 15:30 41.83594 30.35372 28291 ft 371 kts 67°
2026-05-04 15:31 41.85234 30.41963 29051 ft 375 kts 68°
2026-05-04 15:31 41.86062 30.45285 29413 ft 376 kts 68°
2026-05-04 15:32 41.88563 30.55363 30475 ft 382 kts 68°
2026-05-04 15:32 41.90239 30.62138 31091 ft 384 kts 68°
2026-05-04 15:33 41.91922 30.68978 31679 ft 386 kts 68°
2026-05-04 15:34 41.94443 30.79245 32700 ft 386 kts 68°
2026-05-04 15:34 41.95285 30.82677 33030 ft 387 kts 68°
2026-05-04 15:34 41.96965 30.89551 33698 ft 387 kts 68°
2026-05-04 15:35 41.98638 30.96442 34275 ft 388 kts 68°
2026-05-04 15:35 41.99465 30.99859 34505 ft 390 kts 68°
2026-05-04 15:35 42.00304 31.03338 34711 ft 392 kts 69°
2026-05-04 15:36 42.01866 31.10399 35126 ft 396 kts 71°
2026-05-04 15:36 42.02616 31.13983 35261 ft 400 kts 72°
2026-05-04 15:36 42.03365 31.17596 35413 ft 402 kts 72°
2026-05-04 15:37 42.04118 31.21226 35596 ft 404 kts 72°
2026-05-04 15:37 42.04879 31.24871 35784 ft 405 kts 72°
2026-05-04 15:37 42.05647 31.28524 35969 ft 407 kts 72°
2026-05-04 15:37 42.06419 31.32187 36150 ft 408 kts 72°
2026-05-04 15:38 42.07193 31.35861 36356 ft 408 kts 72°
2026-05-04 15:38 42.07970 31.39541 36544 ft 409 kts 72°
2026-05-04 15:38 42.08750 31.43227 36725 ft 410 kts 72°
2026-05-04 15:38 42.09532 31.46931 36865 ft 411 kts 72°
2026-05-04 15:39 42.11083 31.54326 36885 ft 409 kts 72°
2026-05-04 15:40 42.13393 31.65390 36901 ft 409 kts 72°
2026-05-04 15:40 42.14921 31.72772 36882 ft 409 kts 73°
2026-05-04 15:41 42.16446 31.80167 36882 ft 409 kts 73°
2026-05-04 15:41 42.17971 31.87563 36883 ft 409 kts 73°
2026-05-04 15:42 42.19488 31.94927 36885 ft 409 kts 73°
2026-05-04 15:42 42.21003 32.02325 36887 ft 409 kts 73°
2026-05-04 15:43 42.22511 32.09741 36891 ft 410 kts 73°
2026-05-04 15:43 42.24013 32.17154 36894 ft 409 kts 73°
2026-05-04 15:44 42.25558 32.24538 36905 ft 408 kts 72°
2026-05-04 15:44 42.27255 32.31846 36901 ft 408 kts 71°
2026-05-04 15:45 42.28987 32.39147 36897 ft 408 kts 71°
2026-05-04 15:45 42.30691 32.46524 36888 ft 417 kts 72°
2026-05-04 15:46 42.32408 32.54102 36888 ft 426 kts 72°
2026-05-04 15:46 42.34142 32.61767 36888 ft 432 kts 72°
2026-05-04 15:47 42.35899 32.69571 36889 ft 434 kts 72°
2026-05-04 15:47 42.37657 32.77391 36887 ft 435 kts 72°
2026-05-04 15:48 42.39404 32.85218 36887 ft 435 kts 72°
2026-05-04 15:48 42.42019 32.96964 36897 ft 435 kts 72°
2026-05-04 15:49 42.43760 33.04805 36901 ft 435 kts 72°
2026-05-04 15:49 42.45129 33.12768 36900 ft 436 kts 84°
2026-05-04 15:50 42.44655 33.20966 36904 ft 439 kts 97°
2026-05-04 15:50 42.43639 33.29123 36921 ft 440 kts 97°
2026-05-04 15:51 42.42618 33.37285 36916 ft 440 kts 97°
2026-05-04 15:51 42.41595 33.45450 36905 ft 440 kts 97°
2026-05-04 15:52 42.40569 33.53551 36910 ft 440 kts 98°
2026-05-04 15:52 42.39524 33.61711 36912 ft 439 kts 98°
2026-05-04 15:53 42.38480 33.69862 36921 ft 439 kts 98°
2026-05-04 15:53 42.37436 33.77998 36917 ft 439 kts 98°
2026-05-04 15:54 42.36382 33.86130 36917 ft 439 kts 98°
2026-05-04 15:54 42.35319 33.94268 36913 ft 439 kts 98°
2026-05-04 15:55 42.34256 34.02399 36926 ft 439 kts 98°
2026-05-04 15:55 42.33191 34.10537 36916 ft 440 kts 98°
2026-05-04 15:56 42.32115 34.18669 36918 ft 440 kts 98°
2026-05-04 15:56 42.31034 34.26818 36917 ft 440 kts 98°
2026-05-04 15:57 42.29954 34.34961 36927 ft 440 kts 97°
2026-05-04 15:57 42.30053 34.43163 36918 ft 438 kts 78°
2026-05-04 15:58 42.31458 34.51157 36923 ft 438 kts 77°
2026-05-04 15:58 42.32861 34.59155 36923 ft 437 kts 77°
2026-05-04 15:59 42.34253 34.67154 36923 ft 437 kts 77°
2026-05-04 15:59 42.35633 34.75117 36920 ft 437 kts 77°
2026-05-04 16:00 42.37019 34.83124 36910 ft 437 kts 77°
2026-05-04 16:00 42.38394 34.91119 36927 ft 437 kts 77°
2026-05-04 16:01 42.39765 34.99136 36922 ft 437 kts 77°
2026-05-04 16:01 42.41134 35.07154 36919 ft 437 kts 77°
2026-05-04 16:02 42.42501 35.15177 36918 ft 438 kts 77°
2026-05-04 16:03 42.44537 35.27222 36908 ft 438 kts 77°
2026-05-04 16:03 42.45884 35.35260 36914 ft 437 kts 77°
2026-05-04 16:04 42.47230 35.43304 36917 ft 437 kts 77°
2026-05-04 16:04 42.49020 35.54031 36902 ft 440 kts 77°
2026-05-04 16:05 42.50351 35.62125 36894 ft 441 kts 78°
2026-05-04 16:06 42.52350 35.74302 36897 ft 441 kts 78°
2026-05-04 16:07 42.55002 35.90523 36910 ft 442 kts 78°
2026-05-04 16:08 42.57630 36.06824 36901 ft 443 kts 79°
2026-05-04 16:09 42.60901 36.27303 36909 ft 444 kts 79°
2026-05-04 16:10 42.63500 36.43707 36913 ft 445 kts 79°
2026-05-04 16:11 42.66062 36.60144 36913 ft 445 kts 79°
2026-05-04 16:12 42.69847 36.84669 36927 ft 441 kts 79°
2026-05-04 16:13 42.73656 37.00460 36918 ft 441 kts 69°
2026-05-04 16:14 42.78379 37.15852 36916 ft 440 kts 69°
2026-05-04 16:16 42.82548 37.35511 36310 ft 433 kts 102°
2026-05-04 16:16 42.77320 37.44975 34357 ft 437 kts 150°
2026-05-04 16:17 42.71290 37.46336 32812 ft 456 kts 183°
2026-05-04 16:18 42.63130 37.39457 30180 ft 490 kts 232°
2026-05-04 16:18 42.61576 37.35317 29132 ft 497 kts 249°
2026-05-04 16:19 42.62249 37.21630 26385 ft 490 kts 299°
2026-05-04 16:19 42.66734 37.15067 24963 ft 468 kts 332°
2026-05-04 16:20 42.75805 37.13219 22779 ft 432 kts 19°
2026-05-04 16:20 42.80946 37.16868 21323 ft 410 kts 45°
2026-05-04 16:21 42.85073 37.26452 19260 ft 392 kts 72°
2026-05-04 16:22 42.86926 37.33475 17786 ft 395 kts 71°
2026-05-04 16:22 42.89733 37.44072 15767 ft 393 kts 71°
2026-05-04 16:23 42.92466 37.54503 14885 ft 387 kts 72°
2026-05-04 16:24 42.96072 37.68324 14896 ft 387 kts 72°
2026-05-04 16:25 42.97868 37.75258 14895 ft 387 kts 72°
2026-05-04 16:26 43.01459 37.89127 14893 ft 386 kts 72°
2026-05-04 16:26 43.04123 37.99501 14887 ft 385 kts 72°
2026-05-04 16:27 43.05894 38.06419 14881 ft 385 kts 72°
2026-05-04 16:28 43.08443 38.16793 14884 ft 384 kts 79°
2026-05-04 16:28 43.09251 38.27601 14882 ft 379 kts 88°
2026-05-04 16:29 43.10104 38.41966 14166 ft 377 kts 88°
2026-05-04 16:30 43.10721 38.52680 13420 ft 376 kts 88°
2026-05-04 16:31 43.11118 38.59810 12885 ft 374 kts 87°
2026-05-04 16:31 43.11698 38.70440 12095 ft 372 kts 88°
2026-05-04 16:32 43.12281 38.81004 11319 ft 370 kts 88°
2026-05-04 16:33 43.12665 38.88001 10818 ft 365 kts 87°
2026-05-04 16:33 43.13023 38.94670 10326 ft 339 kts 87°
2026-05-04 16:34 43.13349 39.00906 9923 ft 316 kts 87°
2026-05-04 16:34 43.13501 39.03845 9804 ft 304 kts 87°
2026-05-04 16:35 43.13934 39.12261 9407 ft 292 kts 88°
2026-05-04 16:35 43.14352 39.20513 8954 ft 290 kts 88°
2026-05-04 16:36 43.14490 39.23260 8661 ft 289 kts 88°
2026-05-04 16:36 43.14772 39.28729 8088 ft 287 kts 84°
2026-05-04 16:37 43.15841 39.33994 7516 ft 287 kts 73°
2026-05-04 16:37 43.16455 39.36585 7219 ft 285 kts 73°
2026-05-04 16:37 43.17662 39.41744 6643 ft 283 kts 72°
2026-05-04 16:38 43.18855 39.46851 6067 ft 280 kts 73°
2026-05-04 16:39 43.20621 39.54420 5115 ft 275 kts 72°
2026-05-04 16:39 43.21776 39.59398 4521 ft 272 kts 72°
2026-05-04 16:40 43.22925 39.64354 3899 ft 273 kts 70°
2026-05-04 16:40 43.24038 39.69149 3591 ft 250 kts 69°
2026-05-04 16:41 43.25033 39.73462 3389 ft 226 kts 71°
2026-05-04 16:41 43.26390 39.79468 2923 ft 209 kts 70°
2026-05-04 16:42 43.28788 39.83486 2566 ft 168 kts 26°
2026-05-04 16:43 43.30718 39.84930 2306 ft 149 kts 25°
2026-05-04 16:43 43.32460 39.86232 2103 ft 140 kts 27°
2026-05-04 16:43 43.33306 39.86865 2034 ft 139 kts 27°
2026-05-04 16:44 43.36676 39.89387 1555 ft 136 kts 29°
2026-05-04 16:45 43.38324 39.90622 1170 ft 135 kts 28°
2026-05-04 16:46 43.40766 39.92463 655 ft 131 kts 25°
2026-05-04 16:46 43.42370 39.93661 328 ft 132 kts 27°
2026-05-04 16:47 43.43934 39.94837 72 ft 113 kts 28°
2026-05-04 16:47 43.44784 39.95474 89 ft 39 kts 27°
2026-05-04 16:48 43.45007 39.95536 90 ft 2 kts 332°
2026-05-04 16:48 43.45016 39.95530 91 ft 0 kts 333°
2026-05-04 16:49 43.45063 39.95498 94 ft 18 kts 330°
2026-05-04 16:49 43.45050 39.95226 89 ft 16 kts 245°
2026-05-04 16:50 43.44960 39.95028 80 ft 13 kts 237°
2026-05-04 16:50 43.44867 39.94755 70 ft 14 kts 244°
2026-05-04 16:51 43.44802 39.94566 72 ft 12 kts 245°
2026-05-04 16:51 43.44769 39.94466 69 ft 11 kts 244°
2026-05-04 16:51 43.44754 39.94337 68 ft 6 kts 323°
2026-05-04 16:52 43.44790 39.94313 72 ft 0 kts 334°